Regional Weather Roundup
Issued by NWS

Home | Current Version | Previous Version | Graphics & Text | Print | Product List | Glossary On
Versions: 1 2 3 4 5 6 7 8 9 10 11 12 13 14 15 16 17 18 19 20 21 22 23 24 25 26 27 28 29 30 31 32 33 34 35 36 37 38 39 40 41 42 43 44 45 46 47 48 49 50
733
ASUS45 KABQ 290710
RWRNM
NEW MEXICO REGIONAL WEATHER ROUNDUP
NATIONAL WEATHER SERVICE ALBUQUERQUE NM
100 AM MDT FRI APR 29 2016

NOTE: "FAIR" MEANS FEW OR NO CLOUDS BELOW 12,000 FEET AGL WITH NO
       SIGNIFICANT WEATHER OR OBSTRUCTIONS TO VISION.

      THIS PRODUCT IS RELEASED AS TWO VERSIONS.  ONE VERSION NEAR
      THE TOP OF THE HOUR CONTAINING PRELIMINARY DATA FROM ALBUQUERQUE
      AND OTHER STATIONS.  A FINAL VERSION WITH ADDITIONAL DATA IS
      ISSUED ABOUT 10 MINUTES AFTER THE HOUR.

NMZ501-503-504-510>518-290800-
NORTHWEST PLATEAU/NORTHCENTRAL MOUNTAINS

CITY           SKY/WX    TMP DP  RH WIND       PRES   REMARKS
FARMINGTON     CLOUDY    44  29  55 SE15      29.85R
LOS ALAMOS     MOCLDY    51  27  39 S9        29.85R
SANTA FE       MOCLDY    53  33  46 SE15G30   29.78S
TAOS           FAIR      48  25  40 N14       29.85S
ANGEL FIRE     LGT RAIN  37  33  87 S3        29.93S

$$
NMZ402-403-502-505>509-290800-
WESTCENTRAL MOUNTAINS/SOUTHWEST MOUNTAINS

CITY           SKY/WX    TMP DP  RH WIND       PRES   REMARKS
GALLUP         FAIR      41  18  39 SW7       29.84F
GRANTS         CLOUDY    40  29  65 N8        29.90F WCI  35
SILVER CITY      N/A     50  27  40 NW12      29.89R

$$
NMZ407-409-411-412-290800-
SOUTHERN DESERTS

CITY           SKY/WX    TMP DP  RH WIND       PRES   REMARKS
LORDSBURG      FAIR      52  27  37 W9        29.86R
DEMING         MOCLDY    58  30  34 W14       29.83R
LAS CRUCES     MOCLDY    62  26  25 W20G29    29.82R
HOLLOMAN AFB   FAIR      58  20  22 SW9       29.75R
ALAMOGORDO     FAIR      59  23  25 S7        29.78R
T OR C         MOCLDY    60  27  28 W12       29.79R

$$
NMZ519>523-290800-
CENTRAL VALLEYS/CENTRAL HIGHLANDS

CITY           SKY/WX    TMP DP  RH WIND       PRES   REMARKS
ALBUQUERQUE    MOCLDY    56  22  26 NW15      29.82R
DOUBLE EAGLE   MOCLDY    50  26  40 W17G23    29.83R
MORIARTY ARPT  CLOUDY    56  22  27 S18G32    29.82R
CLINES CORNERS CLOUDY    46  38  73 E12G20    29.84F
BELEN          FAIR      54  27  35 NW17G26   29.81R
SOCORRO        FAIR      58  26  28 W7G16     29.77R

$$
NMZ524>526-539-540-290800-
SOUTHCENTRAL MOUNTAINS

CITY           SKY/WX    TMP DP  RH WIND       PRES   REMARKS
RUIDOSO          N/A     50  18  27 W12       29.87R

$$
NMZ527>531-290800-
NORTHEAST HIGHLANDS/NORTHEAST PLAINS

CITY           SKY/WX    TMP DP  RH WIND       PRES   REMARKS
LAS VEGAS      LGT RAIN  40  37  89 NE17      29.89S WCI  31
RATON          MOCLDY    36  33  89 N17       29.92F WCI  26
CLAYTON        LGT RAIN  41  39  93 NE23G30   29.93F

$$
NMZ532>537-290800-
EASTCENTRAL PLAINS

CITY           SKY/WX    TMP DP  RH WIND       PRES   REMARKS
TUCUMCARI      CLOUDY    54  48  80 NE15      29.78R
CANNON AFB     FAIR      56  47  70 E10       29.73S
CLOVIS AIRPORT FAIR      57  48  72 E13       29.75F

$$
NMZ028-029-538-290800-
SOUTHEAST PLAINS

CITY           SKY/WX    TMP DP  RH WIND       PRES   REMARKS
ROSWELL        FAIR      60  19  20 SW9       29.69S
ARTESIA        FAIR      64  28  25 CALM      29.69F
CARLSBAD       FAIR      64  48  56 CALM      29.66S
HOBBS          FAIR      64  59  82 SE10      29.69S


$$




USA.gov is the U.S. government's official web portal to all federal, state and local government web resources and services.